Regional Weather Roundup
Issued by NWS Sterling, VA

Home | Current Version | Previous Version | Text Only | Print | Product List | Glossary On
Versions: 1 2 3 4 5 6 7 8 9 10 11 12 13 14 15 16 17 18 19 20 21 22 23 24 25 26 27
000
ASUS41 KLWX 181410
RWRLWX

REGIONAL WEATHER ROUNDUP
NATIONAL WEATHER SERVICE BALTIMORE MD/WASHINGTON DC
900 AM EST WED JAN 18 2017

Note: "FAIR" indicates few or no clouds below 12,000 feet
with no significant weather and/or obstructions to visibility.
 TC=TEMPERATURE CELSIUS

 * =Non NWS site. Station does not report precipitation (e.g. rain,
    snow, etc.), thunder, or fog.

DCZ001-MDZ009-015-VAZ040>042-051-053>054-181500-
WASHINGTON METRO

CITY           SKY/WX    TMP DP  RH WIND       PRES   REMARKS
WASHINGTON NAT CLOUDY    52  45  77 NW15G22   29.93R
DULLES         CLOUDY    51  42  71 NW14      29.95R
ANDREWS AFB    MOSUNNY   49  49  99 N9        29.91R
FT BELVOIR     CLOUDY    51  49  95 NW15G28   29.92R
QUANTICO       CLOUDY    48  46  93 N16G25    29.94R
LEESBURG*      CLOUDY    54  46  76 NW8       29.97R
GAITHERSBURG*  CLOUDY    46  43  87 NW7       29.99R

$$

MDZ006>007-011-014-181500-
BALTIMORE METRO

CITY           SKY/WX    TMP DP  RH WIND       PRES   REMARKS
BWI AIRPORT    CLOUDY    49  47  93 NW10      29.92S
MD SCIENCE CTR   N/A     52  44  74 MISG      29.94R
MARTIN STATE   CLOUDY    46  46 100 W6        29.93R
ANNAPOLIS      FOG       46  44  93 CALM      29.92R VSB 1/4
FORT MEADE*    CLOUDY    45  45 100 NW5       29.96R

$$

MDZ012-015-019>023-181500-
MARYLAND EASTERN SHORE

CITY           SKY/WX    TMP DP  RH WIND       PRES   REMARKS
OCEAN CITY     PTSUNNY   52  51  97 N8        29.89S
SALISBURY      CLOUDY    51  49  92 NW6       29.90R
BAY BRIDGE AP* FOG       41  41 100 NW5       29.93R VSB<1/4
CAMBRIDGE*     CLOUDY    45  45 100 NW5       29.91R
EASTON*        FOG       46  45  93 NW3       29.95R VSB 3/4

$$

MDZ017>025-181500-
SOUTHERN MARYLAND

CITY           SKY/WX    TMP DP  RH WIND       PRES   REMARKS
PATUXENT RIVER FOG       45  45 100 N7        29.92R VSB 1/8
ST INIGOES     CLOUDY    51  49  92 N5        29.91R FOG
LEONARDTOWN*   CLOUDY    46  45  93 CALM      29.94R VSB 1/2

$$

MDZ003>005-181500-
NORTH CENTRAL MARYLAND

CITY           SKY/WX    TMP DP  RH WIND       PRES   REMARKS
FREDERICK*     CLOUDY    43  43 100 SE5       29.99R
HAGERSTOWN APT CLOUDY    44  41  89 SW6       29.96R FOG
WESTMINSTER*   FOG       41  41 100 SW10      29.94R VSB 3/4

$$

MDZ501>502-181500-
WESTERN MARYLAND

CITY           SKY/WX    TMP DP  RH WIND       PRES   REMARKS
OAKLAND*       FOG       36  36 100 W13G18    29.98R VSB 1/2 WCI  27
CUMBERLAND*    CLOUDY    50  39  66 W7        30.04R

$$

VAZ025>031-181500-
SHENANDOAH VALLEY

CITY           SKY/WX    TMP DP  RH WIND       PRES   REMARKS
WINCHESTER*    CLOUDY    45  41  87 NW5       29.98R
FRONT ROYAL*   CLOUDY    41  41 100 CALM      29.98R
LURAY*         CLOUDY    45  45 100 E3        29.97R
NEW MARKET*    MOSUNNY   52  37  56 NW8       29.97R
STAUNTON*      PTSUNNY   52  41  65 NW6       29.98R
WAYNESBORO*    CLOUDY    54  39  56 W8        29.96R

$$

WVZ021-048>050-054>055-181500-
EASTERN WEST VIRGINIA PANHANDLE

CITY           SKY/WX    TMP DP  RH WIND       PRES   REMARKS
MARTINSBURG    CLOUDY    44  42  93 N3        29.97R
PETERSBURG*    CLOUDY    50  38  63 W12       30.01R

$$

VAZ036>039-050-181500-
CENTRAL FOOTHILLS

CITY           SKY/WX    TMP DP  RH WIND       PRES   REMARKS
CHARLOTTESVILL PTSUNNY   57  51  80 VRB3      29.95R
CULPEPER*      CLOUDY    49  48  97 NW8       29.96R
ORANGE*          N/A     50  50 100 CALM      29.96R FOG
GORDONSVILLE*  FOG       48  48 100 CALM      29.94R VSB 3/4
WARRENTON*     CLOUDY    51  43  74 N14       29.95R

$$

VAZ055>057-181500-
NORTH AND CENTRAL PIEDMONT

CITY           SKY/WX    TMP DP  RH WIND       PRES   REMARKS
FREDERICKSBRG* CLOUDY    53  48  81 N6        29.94R
STAFFORD*      CLOUDY    51  47  84 NW9G16    29.97R

$$

NCZ024-NYZ072-PAZ021-071-VAZ022-071-181500-
OTHER REGIONAL OBSERVATIONS

CITY           SKY/WX    TMP DP  RH WIND       PRES   REMARKS
NEW YORK CITY  CLOUDY    40  39  97 NE7       29.95R FOG
PHILADELPHIA   CLOUDY    42  39  89 N6        29.93S
PITTSBURGH     CLOUDY    40  38  93 W13       30.02R
ROANOKE        PTSUNNY   56  39  53 W20G35    30.02R
RICHMOND       PTSUNNY   57  56  96 N6        29.91R
RALEIGH        CLOUDY    62  57  83 W7        29.97R

$$

ANZ530>537-181500-
MARINE OBSERVATIONS

STATION/POSITION TIME  TEMP    WIND        PRES
                       AIR SEA DIR/SP/G
                 (UTC) (F)     (DEG/KT/KT) (MB)
THOMAS PT LIGHT  1300   41 38   10/  5/  5   N/A
BALT KEY BRIDGE  1348   44     290/  3/  4 1013.2R
COVE POINT       1348   41      20/  9/ 11 1013.9R
LEWISETTA        1348   53 43  350/  3/  6 1012.0F
SOLOMONS ISLAND  1348          350/  4/  6   N/A
PINEY POINT      1348          350/  5/  5   N/A

$$





USA.gov is the U.S. government's official web portal to all federal, state and local government web resources and services.